Tracking 21076 objects as of 10-Aug-2020
HD Live streaming from Space Station
objects crossing your sky now
Track the most recent launched group of Starlink satellites

COSMOS 1506

Track COSMOS 1506 now!
10-day predictions
COSMOS 1506 is classified as:


NORAD ID: 14450
Int'l Code: 1983-108A
Perigee: 953.3 km
Apogee: 1,015.3 km
Inclination: 82.9 °
Period: 104.6 minutes
Semi major axis: 7355 km
RCS: 1.705 m2 (large)
Launch date: October 26, 1983
Source: Commonwealth of Independent States (former USSR) (CIS)
Launch site: PLESETSK MISSILE AND SPACE COMPLEX (PKMTR)
aabbcc
Your satellite tracking list
Your tracking list is empty




NASA's NSSDC Master Catalog

Two Line Element Set (TLE):
1 14450U 83108A   20222.91274446 +.00000014 +00000-0 -66840-6 0  9995
2 14450 082.9283 061.2867 0042096 214.3532 260.6421 13.76266345663659
Source of the keplerian elements: AFSPC